| time (UTC) | temp C | wind direction | speed KPH | gust KPH | rain 1hr cm | rain 24hr cm | rain mn cm | humidity % | barometer mb |
| 20260906192531 | 40 | 293 | 8.0 | 20.9 | 0.00 | 0.00 | 0.00 | 23 | 1008.9 |
| 20260906191631 | 40 | 275 | 8.0 | 16.1 | 0.00 | 0.00 | 0.00 | 24 | 1009.0 |
| 20260906190731 | 39 | 259 | 9.7 | 16.1 | 0.00 | 0.00 | 0.00 | 24 | 1009.1 |
| 20260906185831 | 39 | 279 | 6.4 | 17.7 | 0.00 | 0.00 | 0.00 | 23 | 1009.2 |
| 20260906184931 | 38 | 262 | 8.0 | 19.3 | 0.00 | 0.00 | 0.00 | 24 | 1009.3 |
| 20260906184031 | 38 | 285 | 8.0 | 19.3 | 0.00 | 0.00 | 0.00 | 25 | 1009.6 |
| 20260906183131 | 38 | 283 | 6.4 | 16.1 | 0.00 | 0.00 | 0.00 | 25 | 1009.7 |
| 20260906182231 | 38 | 262 | 6.4 | 16.1 | 0.00 | 0.00 | 0.00 | 24 | 1009.7 |
| 20260906180431 | 37 | 293 | 8.0 | 16.1 | 0.00 | 0.00 | 0.00 | 26 | 1010.1 |
| 20260906174631 | 37 | 308 | 6.4 | 14.5 | 0.00 | 0.00 | 0.00 | 28 | 1010.1 |
| 20260906171931 | 36 | 272 | 4.8 | 14.5 | 0.00 | 0.00 | 0.00 | 29 | 1010.5 |
| 20260906171031 | 36 | 256 | 4.8 | 14.5 | 0.00 | 0.00 | 0.00 | 29 | 1010.6 |
| 20260906170131 | 36 | 266 | 4.8 | 12.9 | 0.00 | 0.00 | 0.00 | 31 | 1010.5 |
| 20260906165231 | 35 | 268 | 3.2 | 12.9 | 0.00 | 0.00 | 0.00 | 31 | 1010.6 |
| 20260906164331 | 35 | 259 | 4.8 | 8.0 | 0.00 | 0.00 | 0.00 | 32 | 1010.6 |
| 20260906163431 | 35 | 262 | 4.8 | 12.9 | 0.00 | 0.00 | 0.00 | 33 | 1010.6 |
| 20260906162531 | 34 | 280 | 3.2 | 9.7 | 0.00 | 0.00 | 0.00 | 34 | 1010.6 |
| 20260906161631 | 33 | 285 | 3.2 | 11.3 | 0.00 | 0.00 | 0.00 | 35 | 1010.6 |
| 20260906160731 | 33 | 289 | 1.6 | 11.3 | 0.00 | 0.00 | 0.00 | 35 | 1010.7 |
| 20260906155831 | 33 | 284 | 1.6 | 4.8 | 0.00 | 0.00 | 0.00 | 36 | 1010.7 |
| 20260906154931 | 32 | 275 | 0.0 | 4.8 | 0.00 | 0.00 | 0.00 | 37 | 1010.8 |
| 20260906153131 | 32 | 90 | 3.2 | 6.4 | 0.00 | 0.00 | 0.00 | 38 | 1010.8 |
| 20260906151331 | 31 | 92 | 3.2 | 6.4 | 0.00 | 0.00 | 0.00 | 41 | 1010.8 |
| 20260906150431 | 31 | 95 | 1.6 | 6.4 | 0.00 | 0.00 | 0.00 | 41 | 1010.8 |
| 20260906144631 | 31 | 50 | 0.0 | 4.8 | 0.00 | 0.00 | 0.00 | 40 | 1010.6 |
| 20260906143731 | 31 | 50 | 0.0 | 3.2 | 0.00 | 0.00 | 0.00 | 41 | 1010.6 |
| 20260906142831 | 30 | 49 | 0.0 | 1.6 | 0.00 | 0.00 | 0.00 | 42 | 1010.5 |
| 20260906141931 | 30 | 0 | 0.0 | 0.0 | 0.00 | 0.00 | 0.00 | 43 | 1010.4 |
| 20260906141031 | 29 | 0 | 0.0 | 0.0 | 0.00 | 0.00 | 0.00 | 45 | 1010.3 |
| 20260906135231 | 27 | 0 | 0.0 | 0.0 | 0.00 | 0.00 | 0.00 | 50 | 1010.1 |
| 20260906134331 | 27 | 0 | 0.0 | 0.0 | 0.00 | 0.00 | 0.00 | 50 | 1010.0 |
| 20260906132531 | 26 | 0 | 0.0 | 0.0 | 0.00 | 0.00 | 0.00 | 51 | 1009.7 |
| 20260906130731 | 26 | 0 | 0.0 | 0.0 | 0.00 | 0.00 | 0.00 | 50 | 1009.5 |
| 20260906125831 | 26 | 0 | 0.0 | 0.0 | 0.00 | 0.00 | 0.00 | 50 | 1009.5 |
| 20260906124931 | 27 | 0 | 0.0 | 0.0 | 0.00 | 0.00 | 0.00 | 50 | 1009.4 |
| 20260906124030 | 27 | 0 | 0.0 | 0.0 | 0.00 | 0.00 | 0.00 | 49 | 1009.4 |
| 20260906123131 | 27 | 0 | 0.0 | 0.0 | 0.00 | 0.00 | 0.00 | 49 | 1009.4 |
| 20260906121330 | 27 | 0 | 0.0 | 0.0 | 0.00 | 0.00 | 0.00 | 49 | 1009.5 |
| 20260906120430 | 27 | 0 | 0.0 | 0.0 | 0.00 | 0.00 | 0.00 | 49 | 1009.4 |
| 20260906114630 | 27 | 0 | 0.0 | 0.0 | 0.00 | 0.00 | 0.00 | 49 | 1009.4 |
| 20260906112830 | 27 | 0 | 0.0 | 0.0 | 0.00 | 0.00 | 0.00 | 48 | 1009.2 |
| 20260906111930 | 27 | 0 | 0.0 | 0.0 | 0.00 | 0.00 | 0.00 | 47 | 1009.2 |
| 20260906111031 | 27 | 0 | 0.0 | 0.0 | 0.00 | 0.00 | 0.00 | 47 | 1009.3 |
| 20260906110130 | 27 | 0 | 0.0 | 0.0 | 0.00 | 0.00 | 0.00 | 47 | 1009.3 |
| 20260906104330 | 28 | 0 | 0.0 | 0.0 | 0.00 | 0.00 | 0.00 | 46 | 1009.3 |
| 20260906103430 | 28 | 0 | 0.0 | 0.0 | 0.00 | 0.00 | 0.00 | 47 | 1009.2 |
| 20260906102530 | 27 | 0 | 0.0 | 0.0 | 0.00 | 0.00 | 0.00 | 47 | 1009.2 |
| 20260906101630 | 28 | 0 | 0.0 | 0.0 | 0.00 | 0.00 | 0.00 | 47 | 1009.3 |
| 20260906100730 | 28 | 0 | 0.0 | 0.0 | 0.00 | 0.00 | 0.00 | 46 | 1009.2 |
| 20260906095830 | 28 | 0 | 0.0 | 0.0 | 0.00 | 0.00 | 0.00 | 46 | 1009.3 |
| 20260906094930 | 28 | 0 | 0.0 | 0.0 | 0.00 | 0.00 | 0.00 | 45 | 1009.2 |
| 20260906094030 | 28 | 0 | 0.0 | 0.0 | 0.00 | 0.00 | 0.00 | 45 | 1009.2 |
| 20260906093130 | 28 | 0 | 0.0 | 0.0 | 0.00 | 0.00 | 0.00 | 44 | 1009.1 |
| 20260906092230 | 28 | 0 | 0.0 | 0.0 | 0.00 | 0.00 | 0.00 | 44 | 1009.1 |
| 20260906091330 | 28 | 0 | 0.0 | 0.0 | 0.00 | 0.00 | 0.00 | 44 | 1009.1 |
| 20260906084630 | 29 | 0 | 0.0 | 0.0 | 0.00 | 0.00 | 0.00 | 43 | 1009.3 |
| 20260906083730 | 30 | 0 | 0.0 | 0.0 | 0.00 | 0.00 | 0.00 | 42 | 1009.2 |
| 20260906081030 | 30 | 0 | 0.0 | 0.0 | 0.00 | 0.00 | 0.00 | 41 | 1009.5 |
| 20260906080130 | 30 | 0 | 0.0 | 0.0 | 0.00 | 0.00 | 0.00 | 40 | 1009.5 |
| 20260906075230 | 30 | 49 | 0.0 | 1.6 | 0.00 | 0.00 | 0.00 | 40 | 1009.5 |
| 20260906074330 | 30 | 49 | 0.0 | 1.6 | 0.00 | 0.00 | 0.00 | 40 | 1009.5 |
| 20260906073430 | 30 | 49 | 0.0 | 1.6 | 0.00 | 0.00 | 0.00 | 41 | 1009.5 |
| 20260906071630 | 30 | 49 | 0.0 | 1.6 | 0.00 | 0.00 | 0.00 | 39 | 1009.5 |
| 20260906070730 | 31 | 49 | 0.0 | 1.6 | 0.00 | 0.00 | 0.00 | 39 | 1009.6 |
| 20260906065830 | 31 | 49 | 0.0 | 1.6 | 0.00 | 0.00 | 0.00 | 39 | 1009.7 |
| 20260906064930 | 30 | 0 | 0.0 | 0.0 | 0.00 | 0.00 | 0.00 | 39 | 1009.7 |
| 20260906064030 | 30 | 0 | 0.0 | 0.0 | 0.00 | 0.00 | 0.00 | 39 | 1009.7 |
| 20260906063130 | 31 | 0 | 0.0 | 0.0 | 0.00 | 0.00 | 0.00 | 39 | 1009.8 |
| 20260906062230 | 31 | 51 | 0.0 | 3.2 | 0.00 | 0.00 | 0.00 | 38 | 1009.7 |
| 20260906061330 | 31 | 0 | 0.0 | 0.0 | 0.00 | 0.00 | 0.00 | 38 | 1009.7 |
| 20260906054630 | 31 | 0 | 0.0 | 0.0 | 0.00 | 0.00 | 0.00 | 37 | 1009.8 |
| 20260906053730 | 31 | 57 | 0.0 | 1.6 | 0.00 | 0.00 | 0.00 | 36 | 1009.8 |
| 20260906052830 | 32 | 57 | 0.0 | 1.6 | 0.00 | 0.00 | 0.00 | 36 | 1009.8 |
| 20260906051930 | 32 | 57 | 0.0 | 1.6 | 0.00 | 0.00 | 0.00 | 35 | 1009.8 |
| 20260906051030 | 32 | 56 | 0.0 | 4.8 | 0.00 | 0.00 | 0.00 | 34 | 1009.9 |
| 20260906050130 | 32 | 19 | 0.0 | 3.2 | 0.00 | 0.00 | 0.00 | 34 | 1009.9 |
| 20260906045230 | 33 | 325 | 0.0 | 3.2 | 0.00 | 0.00 | 0.00 | 33 | 1009.7 |
| 20260906044330 | 33 | 323 | 1.6 | 4.8 | 0.00 | 0.00 | 0.00 | 33 | 1009.8 |
| 20260906042530 | 33 | 322 | 3.2 | 9.7 | 0.00 | 0.00 | 0.00 | 32 | 1009.8 |
| 20260906041630 | 33 | 311 | 4.8 | 11.3 | 0.00 | 0.00 | 0.00 | 32 | 1009.8 |
| 20260906040730 | 33 | 305 | 4.8 | 12.9 | 0.00 | 0.00 | 0.00 | 31 | 1009.9 |
| 20260906035830 | 33 | 305 | 4.8 | 12.9 | 0.00 | 0.00 | 0.00 | 31 | 1009.8 |
| 20260906034930 | 34 | 307 | 4.8 | 14.5 | 0.00 | 0.00 | 0.00 | 31 | 1009.8 |
| 20260906034030 | 34 | 312 | 6.4 | 12.9 | 0.00 | 0.00 | 0.00 | 31 | 1009.7 |
| 20260906033131 | 34 | 312 | 8.0 | 16.1 | 0.00 | 0.00 | 0.00 | 31 | 1009.5 |
| 20260906032230 | 34 | 306 | 8.0 | 17.7 | 0.00 | 0.00 | 0.00 | 30 | 1009.6 |
| 20260906031330 | 34 | 304 | 8.0 | 17.7 | 0.00 | 0.00 | 0.00 | 30 | 1009.4 |
| 20260906030430 | 34 | 308 | 9.7 | 14.5 | 0.00 | 0.00 | 0.00 | 30 | 1009.5 |
| 20260906025530 | 35 | 308 | 11.3 | 20.9 | 0.00 | 0.00 | 0.00 | 29 | 1009.4 |
| 20260906023730 | 35 | 306 | 9.7 | 19.3 | 0.00 | 0.00 | 0.00 | 28 | 1009.2 |
| 20260906022830 | 35 | 300 | 9.7 | 19.3 | 0.00 | 0.00 | 0.00 | 28 | 1009.1 |
| 20260906021930 | 35 | 302 | 9.7 | 20.9 | 0.00 | 0.00 | 0.00 | 28 | 1009.0 |
| 20260906021030 | 35 | 312 | 8.0 | 17.7 | 0.00 | 0.00 | 0.00 | 27 | 1009.0 |
| 20260906020130 | 35 | 295 | 8.0 | 16.1 | 0.00 | 0.00 | 0.00 | 27 | 1009.0 |
| 20260906015230 | 36 | 291 | 11.3 | 17.7 | 0.00 | 0.00 | 0.00 | 27 | 1008.9 |
| 20260906014330 | 36 | 291 | 8.0 | 16.1 | 0.00 | 0.00 | 0.00 | 27 | 1009.1 |
| 20260906013430 | 36 | 307 | 9.7 | 17.7 | 0.00 | 0.00 | 0.00 | 27 | 1009.1 |
| 20260906012530 | 36 | 299 | 11.3 | 19.3 | 0.00 | 0.00 | 0.00 | 26 | 1009.2 |
| 20260906011630 | 36 | 295 | 12.9 | 22.5 | 0.00 | 0.00 | 0.00 | 26 | 1009.2 |
| 20260906010730 | 37 | 288 | 12.9 | 22.5 | 0.00 | 0.00 | 0.00 | 26 | 1009.2 |
| 20260906005829 | 37 | 301 | 11.3 | 22.5 | 0.00 | 0.00 | 0.00 | 26 | 1009.1 |
| 20260906004030 | 37 | 301 | 11.3 | 20.9 | 0.00 | 0.00 | 0.00 | 25 | 1009.1 |
| 20260906003130 | 37 | 309 | 12.9 | 24.1 | 0.00 | 0.00 | 0.00 | 25 | 1009.2 |
| 20260906002229 | 38 | 290 | 12.9 | 22.5 | 0.00 | 0.00 | 0.00 | 24 | 1009.2 |
| 20260906001330 | 38 | 293 | 11.3 | 20.9 | 0.00 | 0.00 | 0.00 | 24 | 1009.1 |
| 20260906000430 | 38 | 296 | 12.9 | 22.5 | 0.00 | 0.00 | 0.00 | 24 | 1009.1 |
| 20260905235529 | 38 | 283 | 12.9 | 20.9 | 0.00 | 0.00 | 0.00 | 25 | 1009.0 |
| 20260905234630 | 38 | 280 | 12.9 | 29.0 | 0.00 | 0.00 | 0.00 | 24 | 1009.1 |
| 20260905233730 | 39 | 299 | 12.9 | 25.7 | 0.00 | 0.00 | 0.00 | 24 | 1009.1 |
| 20260905232829 | 39 | 281 | 12.9 | 24.1 | 0.00 | 0.00 | 0.00 | 25 | 1009.1 |
| 20260905231929 | 39 | 299 | 11.3 | 17.7 | 0.00 | 0.00 | 0.00 | 25 | 1009.1 |
| 20260905231029 | 38 | 299 | 11.3 | 25.7 | 0.00 | 0.00 | 0.00 | 25 | 1009.1 |
| 20260905230129 | 39 | 301 | 14.5 | 25.7 | 0.00 | 0.00 | 0.00 | 26 | 1009.2 |
| 20260905225230 | 39 | 291 | 8.0 | 30.6 | 0.00 | 0.00 | 0.00 | 26 | 1009.1 |
| 20260905224329 | 38 | 352 | 3.2 | 19.3 | 0.00 | 0.00 | 0.00 | 28 | 1009.1 |
| 20260905223430 | 38 | 26 | 8.0 | 19.3 | 0.00 | 0.00 | 0.00 | 28 | 1009.1 |
| 20260905221630 | 38 | 280 | 11.3 | 22.5 | 0.00 | 0.00 | 0.00 | 28 | 1009.4 |
| 20260905215829 | 37 | 328 | 8.0 | 14.5 | 0.00 | 0.00 | 0.00 | 30 | 1009.6 |
| 20260905214929 | 37 | 307 | 11.3 | 22.5 | 0.00 | 0.00 | 0.00 | 29 | 1009.9 |
| 20260905214029 | 38 | 284 | 6.4 | 20.9 | 0.00 | 0.00 | 0.00 | 29 | 1009.9 |
| 20260905213129 | 38 | 164 | 8.0 | 19.3 | 0.00 | 0.00 | 0.00 | 28 | 1010.1 |
| 20260905212229 | 40 | 257 | 11.3 | 16.1 | 0.00 | 0.00 | 0.00 | 27 | 1010.1 |
| 20260905211329 | 40 | 278 | 9.7 | 20.9 | 0.00 | 0.00 | 0.00 | 27 | 1010.2 |
| 20260905210429 | 39 | 257 | 3.2 | 22.5 | 0.00 | 0.00 | 0.00 | 28 | 1010.4 |
| 20260905205529 | 38 | 276 | 6.4 | 12.9 | 0.00 | 0.00 | 0.00 | 29 | 1010.4 |
| 20260905204630 | 39 | 270 | 6.4 | 16.1 | 0.00 | 0.00 | 0.00 | 28 | 1010.6 |
| 20260905203729 | 38 | 285 | 6.4 | 12.9 | 0.00 | 0.00 | 0.00 | 29 | 1010.8 |
| 20260905202830 | 39 | 268 | 4.8 | 12.9 | 0.00 | 0.00 | 0.00 | 27 | 1010.9 |
| 20260905201929 | 38 | 182 | 4.8 | 16.1 | 0.00 | 0.00 | 0.00 | 28 | 1011.0 |
| 20260905201029 | 38 | 212 | 3.2 | 16.1 | 0.00 | 0.00 | 0.00 | 28 | 1011.0 |
| 20260905200129 | 37 | 161 | 3.2 | 11.3 | 0.00 | 0.00 | 0.00 | 30 | 1011.1 |
| 20260905195229 | 38 | 133 | 3.2 | 9.7 | 0.00 | 0.00 | 0.00 | 28 | 1011.3 |
| 20260905194329 | 37 | 239 | 3.2 | 6.4 | 0.00 | 0.00 | 0.00 | 29 | 1011.4 |